Home   Weather   Sterling   Past weeks
Flag for USA

Past Weather in Sterling, Virginia, USA — Yesterday and Last 2 Weeks

Now
44 °F

Fog.


Feels Like: 44 °F
Forecast: 64 / 44 °F
Wind: No wind

Location: Washington-Dulles International Airport

Current Time: Oct 23, 2019 at 9:06:58 am

Latest Report: Oct 23, 2019 at 7:52 am


Visibility: 6 mi

Pressure: 30.01 "Hg

Humidity: 93%

Dew Point: 42 °F

Location of SterlingLocation

Past Weather in Sterling — Graph

°F

Sterling Temperature Yesterday

Maximum temperature yesterday: 60 °F (at 12:59 pm)
Minimum temperature yesterday: 49 °F (at 11:30 pm)
Average temperature yesterday: 57 °F

High & Low Weather Summary for the Past Weeks

 TemperatureHumidityPressure
High76 °F (Oct 14, 2:52 pm)100% (Oct 16, 1:29 pm)30.29 "Hg (Oct 16, 1:29 pm)
Low34 °F (Oct 19, 6:52 am)24% (Oct 14, 2:52 pm)29.54 "Hg (Oct 16, 3:52 pm)
Average57 °F68%30.01 "Hg
* Reported Oct 8 6:52 am — Oct 23 6:52 am, Sterling. Weather by CustomWeather, © 2019

Note: Actual official high and low records may vary slightly from our data, if they occured in-between our weather recording intervals... More about our weather records

Advertising

Sterling Weather History for the Previous 24 Hours

Scroll right to see more
 ConditionsComfort  
Time TempWeatherWind HumidityBarometerVisibility
6:52 am
Wed, Oct 23
43 °FFog.No wind97%29.98 "Hg6 mi
5:52 am44 °FClear.No wind93%29.97 "Hg10 mi
4:52 am45 °FClear.No wind93%29.94 "Hg10 mi
3:52 am45 °FFog.No wind97%29.91 "Hg10 mi
3:27 am45 °FClear.No wind97%29.91 "Hg10 mi
2:52 am47 °FFog.No wind97%29.90 "Hg2 mi
1:52 am50 °FFog.3 mph93%29.88 "Hg1 mi
12:52 am50 °FFog.No wind93%29.87 "Hg1 mi
11:52 pm
Tue, Oct 22
49 °FFog.No wind100%29.87 "Hg1 mi
11:30 pm49 °FDense fog.No wind100%29.87 "Hg0 mi
10:52 pm50 °FPassing clouds.No wind100%29.87 "Hg2 mi
10:31 pm51 °FPassing clouds.No wind96%29.88 "Hg4 mi
9:58 pm54 °FLight fog.No wind90%29.88 "Hg1 mi
8:52 pm57 °FPassing clouds.5 mph93%29.86 "Hg10 mi
7:52 pm58 °FPassing clouds.6 mph93%29.85 "Hg10 mi
7:08 pm59 °FMostly cloudy.9 mph90%29.83 "Hg10 mi
6:52 pm57 °FPartly cloudy.5 mph96%29.82 "Hg10 mi
5:52 pm59 °FBroken clouds.8 mph93%29.78 "Hg10 mi
5:09 pm59 °FLight rain. Fog.3 mph93%29.83 "Hg6 mi
4:52 pm59 °FRain. Fog.7 mph93%29.83 "Hg2 mi
4:36 pm59 °FLight rain. Fog.3 mph93%29.84 "Hg4 mi
4:22 pm59 °FLight rain. Fog.6 mph93%29.85 "Hg1 mi
4:10 pm59 °FRain. Fog.13 mph93%29.85 "Hg1 mi
3:52 pm59 °FLight rain. Fog.10 mph93%29.83 "Hg1 mi
3:42 pm59 °FLight rain. Fog.5 mph93%29.82 "Hg1 mi
2:57 pm59 °FLight rain. Fog.6 mph93%29.82 "Hg4 mi
2:34 pm59 °FHeavy rain. Fog.7 mph93%29.81 "Hg2 mi
1:59 pm59 °FLight rain. Overcast.10 mph90%29.82 "Hg7 mi
12:59 pm60 °FOvercast.12 mph80%29.87 "Hg10 mi
11:52 am59 °FFog.13 mph87%29.91 "Hg6 mi
10:52 am59 °FMostly cloudy.12 mph84%29.94 "Hg6 mi
9:52 am58 °FFog.9 mph87%29.96 "Hg6 mi
Weather by CustomWeather, © 2019

See weather overview